Regional Weather Roundup
Issued by NWS

Home | Current Version | Previous Version | Graphics & Text | Print | Product List | Glossary On
Versions: 1 2 3 4 5 6 7 8 9 10 11 12 13 14 15 16 17 18 19 20 21 22 23 24 25 26 27 28 29 30 31 32 33 34 35 36 37 38 39 40 41 42 43 44 45 46 47 48 49 50
000
ASUS43 KLSX 041557
RWRMO

WEATHER SUMMARY FOR MISSOURI
NATIONAL WEATHER SERVICE SPRINGFIELD MO
1100 AM CDT WED MAY 04 2016

NOTE: "FAIR" INDICATES FEW OR NO CLOUDS BELOW 12,000 FEET WITH NO
       SIGNIFICANT WEATHER AND/OR OBSTRUCTIONS TO VISIBILITY.
       CURRENT SKY AND/OR WEATHER CONDITIONS ARE NOT AVAILABLE FOR
       CHILLICOTHE AND FARMINGTON.

MOZ001>031-035>038-043-044-053-054-041700-
...NORTHERN AND WESTERN MISSOURI...

CITY           SKY/WX    TMP DP  RH WIND       PRES   REMARKS
KANSAS CTY INT SUNNY     64  43  46 N8G18     29.99R
LEE`S SUMMIT   SUNNY     63  43  48 N16       29.97R
ST JOSEPH      SUNNY     64  42  44 N12       30.00R
CHILLICOTHE      N/A     65  46  50 VRB5      29.96R

$$
MOZ066>068-077>081-088>096-101>105-041700-
...SOUTHWEST MISSOURI...

CITY           SKY/WX    TMP DP  RH WIND       PRES   REMARKS
SPRINGFIELD    SUNNY     66  41  40 NW18G29   29.90R
JOPLIN         SUNNY     67  44  43 NW16G24   29.96R
BRANSON        SUNNY     66  45  45 NW15G21   29.90R

$$
MOZ032>034-039>042-045>050-055>058-069>072-041700-
...CENTRAL MISSOURI...

CITY           SKY/WX    TMP DP  RH WIND       PRES   REMARKS
COLUMBIA       NOT AVBL
JEFFERSON CITY SUNNY     66  44  45 N15G22    29.86R
ROLLA          SUNNY     63  48  58 MISG      29.83R
SEDALIA        SUNNY     66  48  52 N15       29.93R
WARRENSBURG    SUNNY     63  43  48 N13G20    29.94R

$$
MOZ051-052-059>065-041700-
...EAST CENTRAL MISSOURI...

CITY           SKY/WX    TMP DP  RH WIND       PRES   REMARKS
ST LOUIS INTL  MOSUNNY   65  45  48 N10G23    29.80R

$$
MOZ072>076-082>087-097>100-106>115-041700-
...SOUTH CENTRAL AND SOUTHEAST MISSOURI...

CITY           SKY/WX    TMP DP  RH WIND       PRES   REMARKS
CAPE GIRARDEAU PTSUNNY   63  49  60 W9        29.75F
POPLAR BLUFF   MOSUNNY   67  48  50 NW14G25   29.77S
WEST PLAINS    SUNNY     68  43  40 NW18G25   29.85R

$$



USA.gov is the U.S. government's official web portal to all federal, state and local government web resources and services.